This demonstration page uses our WeatherBlox Daily Observations layout. Learn more.

Left ArrowRight Arrow

38.80484, -77.04692

Hourly Observations for November 17, 2020

Temp ( °F °C ) Dew Point ( °F °C ) Humidity (%) Winds ( mph kmh ) Pressure ( in mb ) Visibility ( mi km ) Precip ( " mm )
12:52 am 00:52 Clear 48 8.9 20 -6.7 33 33 W 5 7 30.06 1018 10 16.0934 0 0
1:52 am 01:52 Clear 45 7.2 27 -2.8 49 49 W 5 7 30.06 1018 10 16.0934 0 0
2:52 am 02:52 Clear 42 5.6 27 -2.8 55 55 S 7 11 30.04 1017 10 16.0934 0 0
3:52 am 03:52 Clear 42 5.6 30 -1.1 62 62 SW 5 7 30.03 1017 10 16.0934 0 0
4:52 am 04:52 Cloudy 43 6.1 32 0 65 65 SW 5 7 30.01 1016 10 16.0934 0 0
5:52 am 05:52 Mostly Clear 43 6.1 27 -2.8 53 53 SSW 7 11 29.99 1016 10 16.0934 0 0
6:52 am 06:52 Mostly Clear 44 6.7 27 -2.8 51 51 SSW 8 13 29.98 1015 10 16.0934 0 0
7:52 am 07:52 Mostly Sunny 46 7.8 26 -3.3 46 46 SW 10 17 29.98 1015 10 16.0934 0 0
8:52 am 08:52 Mostly Sunny 49 9.4 28 -2.2 44 44 S 7 11 29.99 1016 10 16.0934 0 0
9:52 am 09:52 Mostly Sunny 55 12.8 29 -1.7 37 37 W 16 26 29.99 1016 10 16.0934 0 0
10:52 am 10:52 Partly Cloudy 57 13.9 29 -1.7 34 34 W 22 35 29.99 1016 10 16.0934 0 0
11:52 am 11:52 Mostly Cloudy 56 13.3 30 -1.1 37 37 WNW 22 35 30.01 1016 10 16.0934 0 0
12:52 pm 12:52 Mostly Cloudy 52 11.1 29 -1.7 41 41 NW 21 33 30.05 1018 10 16.0934 0 0
1:52 pm 13:52 Partly Cloudy 50 10 30 -1.1 46 46 NW 17 28 30.07 1018 10 16.0934 0 0
2:27 pm 14:27 Mostly Cloudy 50 10 26 -3.3 39 39 NW 24 39 30.08 1019 10 16.0934 0 0
2:52 pm 14:52 Mostly Cloudy 50 10 25 -3.9 38 38 NW 16 26 30.09 1019 10 16.0934 0 0
3:52 pm 15:52 Mostly Cloudy 49 9.4 24 -4.4 38 38 NW 21 33 30.13 1020 10 16.0934 0 0
4:52 pm 16:52 Mostly Cloudy 47 8.3 25 -3.9 42 42 WNW 18 30 30.16 1021 10 16.0934 0 0
5:52 pm 17:52 Mostly Cloudy 46 7.8 24 -4.4 42 42 NW 20 31 30.21 1023 10 16.0934 0 0
6:52 pm 18:52 Partly Cloudy 44 6.7 23 -5 43 43 WNW 20 31 30.24 1024 10 16.0934 0 0
7:52 pm 19:52 Partly Cloudy 42 5.6 25 -3.9 51 51 NW 16 26 30.28 1026 10 16.0934 0 0
8:52 pm 20:52 Mostly Cloudy 41 5 24 -4.4 51 51 NW 9 15 30.31 1026 10 16.0934 0 0
9:52 pm 21:52 Mostly Cloudy 41 5 20 -6.7 43 43 NW 15 24 30.33 1027 10 16.0934 0 0
10:52 pm 22:52 Mostly Cloudy 39 3.9 22 -5.6 50 50 NNW 12 19 30.35 1028 10 16.0934 0 0
11:52 pm 23:52 Partly Cloudy 39 3.9 22 -5.6 50 50 NW 12 19 30.37 1029 10 16.0934 0 0

Powered by AerisWeather